Time,TemperatureF,DewpointF,PressureIn,WindDirection,WindDirectionDegrees,WindSpeedMPH,WindSpeedGustMPH,Humidity,HourlyPrecipIn,Conditions,Clouds,dailyrainin,SoftwareType,DateUTC
2013-02-11 00:00:00,30.6,19.9,30.23,SSE,167,0.0,0.0,64,0.00,,,0.00,Wunderground v.1.15,2013-02-11 05:00:00,
2013-02-11 00:01:00,30.6,19.9,30.23,SSE,167,0.0,0.0,64,0.00,,,0.00,Wunderground v.1.15,2013-02-11 05:01:00,
2013-02-11 00:03:00,30.6,19.9,30.23,SSE,167,0.0,0.0,64,0.00,,,0.00,Wunderground v.1.15,2013-02-11 05:03:00,
2013-02-11 00:08:00,30.6,19.9,30.23,SSE,167,0.0,0.0,64,0.00,,,0.00,Wunderground v.1.15,2013-02-11 05:08:00,
2013-02-11 00:14:00,30.7,20.0,30.22,SSE,167,0.0,0.0,64,0.00,,,0.00,Wunderground v.1.15,2013-02-11 05:14:00,
2013-02-11 00:20:00,30.7,20.0,30.22,SSE,167,0.0,0.0,64,0.00,,,0.00,Wunderground v.1.15,2013-02-11 05:20:00,
2013-02-11 00:25:00,30.7,20.3,30.22,SSE,167,0.0,0.0,65,0.00,,,0.00,Wunderground v.1.15,2013-02-11 05:25:00,
2013-02-11 00:31:00,30.7,20.3,30.22,SSE,167,0.0,0.0,65,0.00,,,0.00,Wunderground v.1.15,2013-02-11 05:31:00,
2013-02-11 00:37:00,30.7,20.3,30.22,SSE,167,0.0,0.0,65,0.00,,,0.00,Wunderground v.1.15,2013-02-11 05:37:00,
2013-02-11 00:42:00,30.7,20.3,30.22,SSE,167,0.0,0.0,65,0.00,,,0.00,Wunderground v.1.15,2013-02-11 05:42:00,
2013-02-11 00:48:00,30.7,20.3,30.22,SSE,167,0.0,0.0,65,0.00,,,0.00,Wunderground v.1.15,2013-02-11 05:48:00,
2013-02-11 00:54:00,30.7,20.7,30.22,SSE,167,0.0,0.0,66,0.00,,,0.00,Wunderground v.1.15,2013-02-11 05:54:00,
2013-02-11 00:59:00,30.7,20.7,30.20,SSE,167,0.0,0.0,66,0.00,,,0.00,Wunderground v.1.15,2013-02-11 05:59:00,
2013-02-11 01:05:00,30.7,20.7,30.20,SSE,167,0.0,0.0,66,0.00,,,0.00,Wunderground v.1.15,2013-02-11 06:05:00,
2013-02-11 01:11:00,30.7,20.7,30.20,SSE,167,0.0,0.0,66,0.00,,,0.00,Wunderground v.1.15,2013-02-11 06:11:00,
2013-02-11 01:16:00,30.7,21.0,30.19,SSE,167,0.0,0.0,67,0.00,,,0.00,Wunderground v.1.15,2013-02-11 06:16:00,
2013-02-11 01:22:00,30.9,21.2,30.19,SSE,167,0.0,0.0,67,0.00,,,0.00,Wunderground v.1.15,2013-02-11 06:22:00,
2013-02-11 01:28:00,30.9,21.2,30.19,SSE,167,0.0,0.0,67,0.00,,,0.00,Wunderground v.1.15,2013-02-11 06:28:00,
2013-02-11 01:33:00,30.9,21.2,30.18,SSE,167,0.0,0.0,67,0.00,,,0.00,Wunderground v.1.15,2013-02-11 06:33:00,
2013-02-11 01:39:00,30.9,21.6,30.18,SSE,167,0.0,0.0,68,0.00,,,0.00,Wunderground v.1.15,2013-02-11 06:39:00,
2013-02-11 01:44:00,30.9,21.6,30.18,SSE,167,0.0,0.0,68,0.00,,,0.00,Wunderground v.1.15,2013-02-11 06:44:00,
2013-02-11 01:50:00,30.9,21.6,30.18,SSE,167,0.0,0.0,68,0.00,,,0.00,Wunderground v.1.15,2013-02-11 06:50:00,
2013-02-11 01:56:00,30.9,21.6,30.18,SSE,167,0.0,0.0,68,0.00,,,0.00,Wunderground v.1.15,2013-02-11 06:56:00,
2013-02-11 02:01:00,30.9,21.9,30.17,SSE,167,0.0,0.0,69,0.00,,,0.00,Wunderground v.1.15,2013-02-11 07:01:00,
2013-02-11 02:06:00,31.0,22.0,30.17,SSE,167,0.0,0.0,69,0.00,,,0.00,Wunderground v.1.15,2013-02-11 07:06:00,
2013-02-11 02:11:00,31.0,22.0,30.17,SSE,167,0.0,0.0,69,0.00,,,0.00,Wunderground v.1.15,2013-02-11 07:11:00,
2013-02-11 02:16:00,31.0,22.0,30.18,SSE,167,0.0,0.0,69,0.00,,,0.00,Wunderground v.1.15,2013-02-11 07:16:00,
2013-02-11 02:21:00,31.0,22.4,30.18,SSE,167,0.0,0.0,70,0.00,,,0.00,Wunderground v.1.15,2013-02-11 07:21:00,
2013-02-11 02:26:00,31.2,22.5,30.18,SSE,167,0.0,0.0,70,0.00,,,0.00,Wunderground v.1.15,2013-02-11 07:26:00,
2013-02-11 02:31:00,31.2,22.5,30.17,SSE,167,0.0,0.0,70,0.00,,,0.00,Wunderground v.1.15,2013-02-11 07:31:00,
2013-02-11 02:36:00,31.3,22.6,30.17,SSE,167,0.0,1.0,70,0.00,,,0.00,Wunderground v.1.15,2013-02-11 07:36:00,
2013-02-11 02:41:00,31.3,22.6,30.17,SSE,167,1.0,1.0,70,0.00,,,0.00,Wunderground v.1.15,2013-02-11 07:41:00,
2013-02-11 02:46:00,31.5,23.2,30.15,SSE,167,0.0,1.0,71,0.00,,,0.00,Wunderground v.1.15,2013-02-11 07:46:00,
2013-02-11 02:51:00,31.6,23.3,30.15,SSE,167,0.0,1.0,71,0.00,,,0.00,Wunderground v.1.15,2013-02-11 07:51:00,
2013-02-11 02:56:00,31.8,23.5,30.15,SSE,167,0.0,1.0,71,0.00,,,0.00,Wunderground v.1.15,2013-02-11 07:56:00,
2013-02-11 03:01:00,31.8,23.5,30.13,SSE,167,0.0,1.0,71,0.00,,,0.00,Wunderground v.1.15,2013-02-11 08:01:00,
2013-02-11 03:07:00,31.9,23.9,30.13,SSE,167,0.0,1.0,72,0.00,,,0.00,Wunderground v.1.15,2013-02-11 08:07:00,
2013-02-11 03:12:00,31.9,23.9,30.13,SSE,167,0.0,1.0,72,0.00,,,0.00,Wunderground v.1.15,2013-02-11 08:12:00,
2013-02-11 03:17:00,31.9,23.9,30.12,SSE,167,0.0,2.0,72,0.00,,,0.00,Wunderground v.1.15,2013-02-11 08:17:00,
2013-02-11 03:22:00,31.9,23.9,30.12,SSE,167,0.0,0.0,72,0.00,,,0.00,Wunderground v.1.15,2013-02-11 08:22:00,
2013-02-11 03:27:00,32.1,24.1,30.12,SSE,167,0.0,0.0,72,0.00,,,0.00,Wunderground v.1.15,2013-02-11 08:27:00,
2013-02-11 03:32:00,32.1,24.1,30.11,SSE,167,0.0,0.0,72,0.00,,,0.00,Wunderground v.1.15,2013-02-11 08:32:00,
2013-02-11 03:37:00,32.1,24.1,30.11,SSE,167,0.0,0.0,72,0.00,,,0.00,Wunderground v.1.15,2013-02-11 08:37:00,
2013-02-11 03:42:00,32.1,24.4,30.11,SSE,167,0.0,0.0,73,0.00,,,0.00,Wunderground v.1.15,2013-02-11 08:42:00,
2013-02-11 03:47:00,32.2,24.5,30.11,SSE,167,0.0,0.0,73,0.00,,,0.00,Wunderground v.1.15,2013-02-11 08:47:00,
2013-02-11 03:52:00,32.2,24.5,30.11,SSE,167,0.0,0.0,73,0.00,,,0.00,Wunderground v.1.15,2013-02-11 08:52:00,
2013-02-11 03:57:00,32.2,24.5,30.11,SSE,167,0.0,0.0,73,0.00,,,0.00,Wunderground v.1.15,2013-02-11 08:57:00,
2013-02-11 04:02:00,32.4,24.7,30.10,SSE,167,0.0,0.0,73,0.00,,,0.00,Wunderground v.1.15,2013-02-11 09:02:00,
2013-02-11 04:07:00,32.4,24.7,30.10,SSE,166,0.0,2.0,73,0.00,,,0.00,Wunderground v.1.15,2013-02-11 09:07:00,
2013-02-11 04:12:00,32.5,25.1,30.10,East,98,0.0,1.0,74,0.00,,,0.00,Wunderground v.1.15,2013-02-11 09:12:00,
2013-02-11 04:17:00,32.5,25.1,30.10,East,98,0.0,2.0,74,0.00,,,0.00,Wunderground v.1.15,2013-02-11 09:17:00,
2013-02-11 04:22:00,32.7,25.3,30.10,East,98,0.0,0.0,74,0.00,,,0.00,Wunderground v.1.15,2013-02-11 09:22:00,
2013-02-11 04:27:00,32.7,25.6,30.10,East,98,0.0,1.0,75,0.00,,,0.00,Wunderground v.1.15,2013-02-11 09:27:00,
2013-02-11 04:32:00,32.7,25.6,30.09,East,98,0.0,0.0,75,0.00,,,0.00,Wunderground v.1.15,2013-02-11 09:32:00,
2013-02-11 04:37:00,32.8,25.7,30.09,East,98,0.0,0.0,75,0.00,,,0.00,Wunderground v.1.15,2013-02-11 09:37:00,
2013-02-11 04:42:00,32.8,25.7,30.09,East,98,0.0,0.0,75,0.00,,,0.00,Wunderground v.1.15,2013-02-11 09:42:00,
2013-02-11 04:47:00,32.8,25.7,30.08,East,98,0.0,0.0,75,0.00,,,0.00,Wunderground v.1.15,2013-02-11 09:47:00,
2013-02-11 04:52:00,32.8,26.1,30.08,East,98,1.0,1.0,76,0.00,,,0.00,Wunderground v.1.15,2013-02-11 09:52:00,
2013-02-11 04:57:00,32.8,26.1,30.08,East,98,0.0,1.0,76,0.00,,,0.00,Wunderground v.1.15,2013-02-11 09:57:00,
2013-02-11 05:03:00,32.8,26.1,30.08,East,98,0.0,0.0,76,0.00,,,0.00,Wunderground v.1.15,2013-02-11 10:03:00,
2013-02-11 05:08:00,32.8,26.1,30.08,East,98,0.0,1.0,76,0.00,,,0.00,Wunderground v.1.15,2013-02-11 10:08:00,
2013-02-11 05:13:00,32.8,26.4,30.08,East,98,0.0,1.0,77,0.00,,,0.00,Wunderground v.1.15,2013-02-11 10:13:00,
2013-02-11 05:18:00,32.8,26.4,30.06,East,98,0.0,1.0,77,0.00,,,0.00,Wunderground v.1.15,2013-02-11 10:18:00,
2013-02-11 05:23:00,32.8,26.4,30.06,East,98,0.0,0.0,77,0.00,,,0.00,Wunderground v.1.15,2013-02-11 10:23:00,
2013-02-11 05:28:00,32.8,26.7,30.06,East,98,0.0,1.0,78,0.00,,,0.00,Wunderground v.1.15,2013-02-11 10:28:00,
2013-02-11 05:33:00,32.8,26.7,30.05,East,98,0.0,2.0,78,0.00,,,0.00,Wunderground v.1.15,2013-02-11 10:33:00,
2013-02-11 05:38:00,32.8,27.0,30.05,East,98,0.0,2.0,79,0.00,,,0.00,Wunderground v.1.15,2013-02-11 10:38:00,
2013-02-11 05:43:00,32.8,27.0,30.05,East,98,0.0,2.0,79,0.00,,,0.00,Wunderground v.1.15,2013-02-11 10:43:00,
2013-02-11 05:48:00,32.8,27.0,30.04,East,88,0.0,2.0,79,0.00,,,0.01,Wunderground v.1.15,2013-02-11 10:48:00,
2013-02-11 05:53:00,32.8,27.3,30.04,East,88,0.0,2.0,80,0.00,,,0.01,Wunderground v.1.15,2013-02-11 10:53:00,
2013-02-11 05:58:00,32.9,27.4,30.04,East,88,0.0,2.0,80,0.00,,,0.01,Wunderground v.1.15,2013-02-11 10:58:00,
2013-02-11 06:03:00,32.8,27.3,30.02,East,88,0.0,0.0,80,0.06,,,0.02,Wunderground v.1.15,2013-02-11 11:03:00,
2013-02-11 06:08:00,32.9,27.7,30.02,East,88,0.0,1.0,81,0.09,,,0.03,Wunderground v.1.15,2013-02-11 11:08:00,
2013-02-11 06:13:00,32.9,27.7,30.02,East,88,0.0,1.0,81,0.08,,,0.04,Wunderground v.1.15,2013-02-11 11:13:00,
2013-02-11 06:18:00,33.1,27.9,30.00,East,88,0.0,1.0,81,0.15,,,0.05,Wunderground v.1.15,2013-02-11 11:18:00,
2013-02-11 06:23:00,33.2,28.3,30.00,East,88,1.0,2.0,82,0.09,,,0.05,Wunderground v.1.15,2013-02-11 11:23:00,
2013-02-11 06:28:00,33.4,28.5,30.00,ESE,104,0.0,4.0,82,0.09,,,0.06,Wunderground v.1.15,2013-02-11 11:28:00,
2013-02-11 06:33:00,33.5,28.6,29.99,ESE,104,0.0,1.0,82,0.06,,,0.06,Wunderground v.1.15,2013-02-11 11:33:00,
2013-02-11 06:38:00,33.5,28.9,29.99,ESE,104,0.0,1.0,83,0.04,,,0.06,Wunderground v.1.15,2013-02-11 11:38:00,
2013-02-11 06:43:00,33.7,29.1,29.99,ESE,104,0.0,1.0,83,0.04,,,0.07,Wunderground v.1.15,2013-02-11 11:43:00,
2013-02-11 06:48:00,33.8,29.2,29.97,ESE,104,0.0,1.0,83,0.07,,,0.08,Wunderground v.1.15,2013-02-11 11:48:00,
2013-02-11 06:53:00,33.8,29.2,29.97,ESE,104,0.0,1.0,83,0.07,,,0.08,Wunderground v.1.15,2013-02-11 11:53:00,
2013-02-11 06:58:00,34.0,29.7,29.97,ESE,104,0.0,1.0,84,0.21,,,0.10,Wunderground v.1.15,2013-02-11 11:58:00,
2013-02-11 07:03:00,34.1,29.8,29.96,ESE,104,0.0,2.0,84,0.10,,,0.10,Wunderground v.1.15,2013-02-11 12:03:00,
2013-02-11 07:08:00,34.1,29.8,29.96,ESE,104,0.0,2.0,84,0.13,,,0.12,Wunderground v.1.15,2013-02-11 12:08:00,
2013-02-11 07:13:00,34.3,30.0,29.96,ESE,104,0.0,1.0,84,0.11,,,0.12,Wunderground v.1.15,2013-02-11 12:13:00,
2013-02-11 07:18:00,34.4,30.1,29.95,ESE,104,0.0,1.0,84,0.06,,,0.12,Wunderground v.1.15,2013-02-11 12:18:00,
2013-02-11 07:23:00,34.6,30.6,29.95,ESE,104,0.0,1.0,85,0.04,,,0.13,Wunderground v.1.15,2013-02-11 12:23:00,
2013-02-11 07:29:00,34.9,30.8,29.94,ESE,104,0.0,1.0,85,0.04,,,0.13,Wunderground v.1.15,2013-02-11 12:29:00,
2013-02-11 07:34:00,34.9,30.8,29.94,ESE,104,0.0,0.0,85,0.04,,,0.13,Wunderground v.1.15,2013-02-11 12:34:00,
2013-02-11 07:39:00,34.9,30.8,29.94,ESE,104,0.0,0.0,85,0.05,,,0.14,Wunderground v.1.15,2013-02-11 12:39:00,
2013-02-11 07:44:00,35.0,30.9,29.94,ESE,104,0.0,0.0,85,0.05,,,0.14,Wunderground v.1.15,2013-02-11 12:44:00,
2013-02-11 07:49:00,35.0,31.2,29.94,ESE,104,0.0,0.0,86,0.04,,,0.14,Wunderground v.1.15,2013-02-11 12:49:00,
2013-02-11 07:54:00,35.0,31.2,29.94,ESE,104,0.0,0.0,86,0.04,,,0.15,Wunderground v.1.15,2013-02-11 12:54:00,
2013-02-11 07:59:00,34.9,31.1,29.93,ESE,104,0.0,0.0,86,0.04,,,0.15,Wunderground v.1.15,2013-02-11 12:59:00,
2013-02-11 08:04:00,34.9,31.1,29.93,ESE,104,0.0,0.0,86,0.04,,,0.15,Wunderground v.1.15,2013-02-11 13:04:00,
2013-02-11 08:09:00,34.9,31.1,29.93,ESE,104,0.0,0.0,86,0.04,,,0.16,Wunderground v.1.15,2013-02-11 13:09:00,
2013-02-11 08:14:00,34.9,31.1,29.93,ESE,104,0.0,0.0,86,0.04,,,0.16,Wunderground v.1.15,2013-02-11 13:14:00,
2013-02-11 08:19:00,34.7,30.9,29.93,ESE,104,0.0,0.0,86,0.04,,,0.16,Wunderground v.1.15,2013-02-11 13:19:00,
2013-02-11 08:24:00,34.6,30.8,29.93,ESE,104,0.0,1.0,86,0.12,,,0.17,Wunderground v.1.15,2013-02-11 13:24:00,
2013-02-11 08:29:00,34.4,30.6,29.93,ESE,104,0.0,0.0,86,0.12,,,0.18,Wunderground v.1.15,2013-02-11 13:29:00,
2013-02-11 08:34:00,34.4,30.9,29.93,ESE,104,0.0,0.0,87,0.06,,,0.18,Wunderground v.1.15,2013-02-11 13:34:00,
2013-02-11 08:39:00,34.4,30.9,29.93,ESE,104,0.0,0.0,87,0.05,,,0.19,Wunderground v.1.15,2013-02-11 13:39:00,
2013-02-11 08:44:00,34.4,30.9,29.93,ESE,104,0.0,0.0,87,0.05,,,0.19,Wunderground v.1.15,2013-02-11 13:44:00,
2013-02-11 08:49:00,34.4,30.9,29.93,ESE,104,0.0,0.0,87,0.05,,,0.19,Wunderground v.1.15,2013-02-11 13:49:00,
2013-02-11 08:54:00,34.4,30.9,29.93,ESE,104,0.0,0.0,87,0.04,,,0.20,Wunderground v.1.15,2013-02-11 13:54:00,
2013-02-11 08:59:00,34.6,31.1,29.92,ESE,104,1.0,1.0,87,0.04,,,0.20,Wunderground v.1.15,2013-02-11 13:59:00,
2013-02-11 09:04:00,34.6,31.1,29.92,NW,323,0.0,2.0,87,0.04,,,0.20,Wunderground v.1.15,2013-02-11 14:04:00,
2013-02-11 09:09:00,34.7,31.5,29.92,NW,322,0.0,2.0,88,0.04,,,0.21,Wunderground v.1.15,2013-02-11 14:09:00,
2013-02-11 09:14:00,34.7,31.5,29.91,NW,323,0.0,1.0,88,0.04,,,0.21,Wunderground v.1.15,2013-02-11 14:14:00,
2013-02-11 09:19:00,34.7,31.5,29.91,NW,322,0.0,1.0,88,0.04,,,0.21,Wunderground v.1.15,2013-02-11 14:19:00,
2013-02-11 09:24:00,34.9,31.7,29.91,NW,323,0.0,0.0,88,0.00,,,0.21,Wunderground v.1.15,2013-02-11 14:24:00,
2013-02-11 09:29:00,34.9,31.7,29.91,NW,323,0.0,0.0,88,0.00,,,0.21,Wunderground v.1.15,2013-02-11 14:29:00,
2013-02-11 09:34:00,34.9,31.7,29.91,NW,322,0.0,1.0,88,0.00,,,0.21,Wunderground v.1.15,2013-02-11 14:34:00,
2013-02-11 09:39:00,35.0,31.8,29.91,NW,323,0.0,1.0,88,0.00,,,0.21,Wunderground v.1.15,2013-02-11 14:39:00,
2013-02-11 09:44:00,35.0,31.8,29.90,NW,322,0.0,0.0,88,0.00,,,0.21,Wunderground v.1.15,2013-02-11 14:44:00,
2013-02-11 09:49:00,35.2,32.0,29.90,NW,322,0.0,0.0,88,0.00,,,0.21,Wunderground v.1.15,2013-02-11 14:49:00,
2013-02-11 09:54:00,35.3,32.1,29.90,NW,322,0.0,0.0,88,0.00,,,0.21,Wunderground v.1.15,2013-02-11 14:54:00,
2013-02-11 09:59:00,35.3,32.1,29.88,NW,322,0.0,0.0,88,0.00,,,0.21,Wunderground v.1.15,2013-02-11 14:59:00,
2013-02-11 10:04:00,35.6,32.4,29.88,NW,322,0.0,0.0,88,0.00,,,0.21,Wunderground v.1.15,2013-02-11 15:04:00,
2013-02-11 10:10:00,35.8,32.6,29.88,NW,322,0.0,0.0,88,0.00,,,0.21,Wunderground v.1.15,2013-02-11 15:10:00,
2013-02-11 10:15:00,35.9,32.7,29.89,NW,323,0.0,0.0,88,0.00,,,0.21,Wunderground v.1.15,2013-02-11 15:15:00,
2013-02-11 10:20:00,35.9,33.0,29.89,NW,322,0.0,0.0,89,0.00,,,0.21,Wunderground v.1.15,2013-02-11 15:20:00,
2013-02-11 10:25:00,35.9,33.0,29.89,NW,323,0.0,0.0,89,0.00,,,0.21,Wunderground v.1.15,2013-02-11 15:25:00,
2013-02-11 10:30:00,36.0,33.1,29.88,NW,322,0.0,0.0,89,0.00,,,0.21,Wunderground v.1.15,2013-02-11 15:30:00,
2013-02-11 10:35:00,36.0,33.1,29.88,NW,322,0.0,0.0,89,0.00,,,0.21,Wunderground v.1.15,2013-02-11 15:35:00,
2013-02-11 10:40:00,36.2,33.3,29.88,NW,322,0.0,0.0,89,0.00,,,0.21,Wunderground v.1.15,2013-02-11 15:40:00,
2013-02-11 10:45:00,36.2,33.3,29.87,NW,322,0.0,0.0,89,0.00,,,0.21,Wunderground v.1.15,2013-02-11 15:45:00,
2013-02-11 10:50:00,36.2,33.3,29.87,NW,322,0.0,0.0,89,0.00,,,0.21,Wunderground v.1.15,2013-02-11 15:50:00,
2013-02-11 10:55:00,36.3,33.4,29.87,NW,323,0.0,0.0,89,0.00,,,0.21,Wunderground v.1.15,2013-02-11 15:55:00,
2013-02-11 11:00:00,36.5,33.6,29.86,NW,322,0.0,0.0,89,0.00,,,0.21,Wunderground v.1.15,2013-02-11 16:00:00,
2013-02-11 11:05:00,36.6,33.7,29.86,NW,322,0.0,0.0,89,0.00,,,0.21,Wunderground v.1.15,2013-02-11 16:05:00,
2013-02-11 11:11:00,36.6,33.7,29.86,NW,323,0.0,0.0,89,0.00,,,0.21,Wunderground v.1.15,2013-02-11 16:11:00,
2013-02-11 11:16:00,36.8,33.9,29.85,NW,322,0.0,0.0,89,0.00,,,0.21,Wunderground v.1.15,2013-02-11 16:16:00,
2013-02-11 11:21:00,36.9,34.0,29.85,NW,323,0.0,0.0,89,0.00,,,0.21,Wunderground v.1.15,2013-02-11 16:21:00,
2013-02-11 11:26:00,37.0,34.1,29.85,NW,322,0.0,0.0,89,0.00,,,0.21,Wunderground v.1.15,2013-02-11 16:26:00,
2013-02-11 11:31:00,37.0,34.1,29.85,NW,322,0.0,0.0,89,0.00,,,0.21,Wunderground v.1.15,2013-02-11 16:31:00,
2013-02-11 11:36:00,37.0,34.1,29.85,NW,323,0.0,0.0,89,0.00,,,0.21,Wunderground v.1.15,2013-02-11 16:36:00,
2013-02-11 11:41:00,37.0,34.1,29.85,NW,322,0.0,0.0,89,0.00,,,0.21,Wunderground v.1.15,2013-02-11 16:41:00,
2013-02-11 11:46:00,37.0,34.1,29.83,NW,322,0.0,0.0,89,0.00,,,0.21,Wunderground v.1.15,2013-02-11 16:46:00,
2013-02-11 11:51:00,37.2,34.5,29.83,NW,322,0.0,0.0,90,0.00,,,0.21,Wunderground v.1.15,2013-02-11 16:51:00,
2013-02-11 11:56:00,37.3,34.6,29.83,NW,322,0.0,0.0,90,0.00,,,0.21,Wunderground v.1.15,2013-02-11 16:56:00,
2013-02-11 12:01:00,37.5,34.8,29.82,NW,323,0.0,0.0,90,0.00,,,0.21,Wunderground v.1.15,2013-02-11 17:01:00,
2013-02-11 12:06:00,37.6,34.9,29.82,NW,322,0.0,2.0,90,0.00,,,0.21,Wunderground v.1.15,2013-02-11 17:06:00,
2013-02-11 12:11:00,37.9,35.2,29.82,NW,322,0.0,0.0,90,0.00,,,0.21,Wunderground v.1.15,2013-02-11 17:11:00,
2013-02-11 12:16:00,38.0,35.3,29.80,NW,322,0.0,1.0,90,0.00,,,0.21,Wunderground v.1.15,2013-02-11 17:16:00,
2013-02-11 12:21:00,38.2,35.5,29.80,NW,323,0.0,0.0,90,0.00,,,0.21,Wunderground v.1.15,2013-02-11 17:21:00,
2013-02-11 12:26:00,38.5,35.8,29.80,NW,322,0.0,1.0,90,0.00,,,0.21,Wunderground v.1.15,2013-02-11 17:26:00,
2013-02-11 12:31:00,38.6,35.9,29.79,NW,322,0.0,0.0,90,0.00,,,0.21,Wunderground v.1.15,2013-02-11 17:31:00,
2013-02-11 12:37:00,38.8,36.1,29.79,NW,323,0.0,0.0,90,0.00,,,0.21,Wunderground v.1.15,2013-02-11 17:37:00,
2013-02-11 12:42:00,38.9,36.2,29.79,NW,322,0.0,0.0,90,0.00,,,0.21,Wunderground v.1.15,2013-02-11 17:42:00,
2013-02-11 12:47:00,39.1,36.4,29.77,NW,323,0.0,0.0,90,0.00,,,0.21,Wunderground v.1.15,2013-02-11 17:47:00,
2013-02-11 12:52:00,39.2,36.5,29.77,NW,322,0.0,0.0,90,0.00,,,0.21,Wunderground v.1.15,2013-02-11 17:52:00,
2013-02-11 12:57:00,39.3,36.6,29.77,NW,322,0.0,0.0,90,0.00,,,0.21,Wunderground v.1.15,2013-02-11 17:57:00,
2013-02-11 13:02:00,39.5,37.1,29.75,NW,323,0.0,2.0,91,0.00,,,0.21,Wunderground v.1.15,2013-02-11 18:02:00,
2013-02-11 13:07:00,39.6,36.9,29.75,NW,323,0.0,2.0,90,0.00,,,0.21,Wunderground v.1.15,2013-02-11 18:07:00,
2013-02-11 13:12:00,39.8,37.4,29.75,NW,322,0.0,0.0,91,0.00,,,0.21,Wunderground v.1.15,2013-02-11 18:12:00,
2013-02-11 13:17:00,40.1,37.7,29.74,NW,323,0.0,0.0,91,0.00,,,0.21,Wunderground v.1.15,2013-02-11 18:17:00,
2013-02-11 13:22:00,40.1,37.7,29.74,NW,322,0.0,0.0,91,0.00,,,0.21,Wunderground v.1.15,2013-02-11 18:22:00,
2013-02-11 13:27:00,40.2,37.8,29.74,NW,323,0.0,0.0,91,0.00,,,0.21,Wunderground v.1.15,2013-02-11 18:27:00,
2013-02-11 13:32:00,40.3,37.9,29.73,NW,323,0.0,0.0,91,0.00,,,0.21,Wunderground v.1.15,2013-02-11 18:32:00,
2013-02-11 13:37:00,40.5,38.1,29.73,NW,323,0.0,0.0,91,0.00,,,0.21,Wunderground v.1.15,2013-02-11 18:37:00,
2013-02-11 13:42:00,40.6,38.2,29.73,NW,322,0.0,0.0,91,0.00,,,0.21,Wunderground v.1.15,2013-02-11 18:42:00,
2013-02-11 13:47:00,40.9,38.5,29.71,NW,322,0.0,0.0,91,0.00,,,0.21,Wunderground v.1.15,2013-02-11 18:47:00,
2013-02-11 13:52:00,41.1,38.7,29.71,NW,323,0.0,0.0,91,0.00,,,0.21,Wunderground v.1.15,2013-02-11 18:52:00,
2013-02-11 13:57:00,41.2,38.8,29.71,NW,322,0.0,0.0,91,0.00,,,0.21,Wunderground v.1.15,2013-02-11 18:57:00,
2013-02-11 14:02:00,41.5,39.1,29.71,NW,322,0.0,1.0,91,0.00,,,0.21,Wunderground v.1.15,2013-02-11 19:02:00,
2013-02-11 14:07:00,41.6,39.2,29.71,NW,322,1.0,2.0,91,0.00,,,0.21,Wunderground v.1.15,2013-02-11 19:07:00,
2013-02-11 14:13:00,41.9,39.5,29.71,SW,223,1.0,2.0,91,0.00,,,0.21,Wunderground v.1.15,2013-02-11 19:13:00,
2013-02-11 14:18:00,42.3,40.1,29.71,SW,225,0.0,4.0,92,0.00,,,0.21,Wunderground v.1.15,2013-02-11 19:18:00,
2013-02-11 14:23:00,42.6,40.4,29.71,WSW,245,4.0,4.0,92,0.00,,,0.21,Wunderground v.1.15,2013-02-11 19:23:00,
2013-02-11 14:28:00,43.1,40.9,29.71,SW,216,2.0,4.0,92,0.00,,,0.21,Wunderground v.1.15,2013-02-11 19:28:00,
2013-02-11 14:33:00,43.2,41.0,29.70,SW,227,0.0,3.0,92,0.00,,,0.21,Wunderground v.1.15,2013-02-11 19:33:00,
2013-02-11 14:38:00,43.5,41.3,29.70,SW,227,0.0,3.0,92,0.00,,,0.21,Wunderground v.1.15,2013-02-11 19:38:00,
2013-02-11 14:43:00,43.6,41.4,29.70,WSW,251,0.0,4.0,92,0.00,,,0.21,Wunderground v.1.15,2013-02-11 19:43:00,
2013-02-11 14:49:00,43.8,41.6,29.69,SW,232,1.0,4.0,92,0.00,,,0.21,Wunderground v.1.15,2013-02-11 19:49:00,
2013-02-11 14:54:00,43.9,41.7,29.69,SW,234,2.0,4.0,92,0.00,,,0.21,Wunderground v.1.15,2013-02-11 19:54:00,
2013-02-11 14:59:00,44.1,41.9,29.69,SSW,212,2.0,4.0,92,0.00,,,0.21,Wunderground v.1.15,2013-02-11 19:59:00,
2013-02-11 15:04:00,44.2,42.0,29.68,WSW,249,1.0,4.0,92,0.00,,,0.21,Wunderground v.1.15,2013-02-11 20:04:00,
2013-02-11 15:09:00,44.2,42.0,29.68,SSW,200,0.0,5.0,92,0.00,,,0.21,Wunderground v.1.15,2013-02-11 20:09:00,
2013-02-11 15:14:00,44.2,42.0,29.67,SSW,200,0.0,2.0,92,0.00,,,0.21,Wunderground v.1.15,2013-02-11 20:14:00,
2013-02-11 15:19:00,44.3,42.1,29.67,SW,233,1.0,4.0,92,0.00,,,0.21,Wunderground v.1.15,2013-02-11 20:19:00,
2013-02-11 15:24:00,44.5,42.3,29.67,SW,233,0.0,2.0,92,0.00,,,0.21,Wunderground v.1.15,2013-02-11 20:24:00,
2013-02-11 15:29:00,44.6,42.4,29.67,SW,233,0.0,2.0,92,0.00,,,0.21,Wunderground v.1.15,2013-02-11 20:29:00,
2013-02-11 15:34:00,44.6,42.4,29.67,SW,233,1.0,2.0,92,0.00,,,0.21,Wunderground v.1.15,2013-02-11 20:34:00,
2013-02-11 15:40:00,44.8,42.6,29.67,SW,232,0.0,0.0,92,0.00,,,0.21,Wunderground v.1.15,2013-02-11 20:40:00,
2013-02-11 15:45:00,44.8,42.6,29.65,WSW,249,2.0,2.0,92,0.00,,,0.21,Wunderground v.1.15,2013-02-11 20:45:00,
2013-02-11 15:50:00,44.9,42.7,29.65,WSW,237,1.0,3.0,92,0.00,,,0.21,Wunderground v.1.15,2013-02-11 20:50:00,
2013-02-11 15:55:00,44.9,42.7,29.65,WSW,254,0.0,5.0,92,0.00,,,0.21,Wunderground v.1.15,2013-02-11 20:55:00,
2013-02-11 16:00:00,45.1,42.9,29.65,WSW,254,0.0,1.0,92,0.00,,,0.21,Wunderground v.1.15,2013-02-11 21:00:00,
2013-02-11 16:05:00,45.1,42.9,29.65,WSW,254,0.0,2.0,92,0.00,,,0.21,Wunderground v.1.15,2013-02-11 21:05:00,
2013-02-11 16:11:00,45.1,42.9,29.65,SSW,212,0.0,3.0,92,0.00,,,0.21,Wunderground v.1.15,2013-02-11 21:11:00,
2013-02-11 16:16:00,45.2,43.0,29.63,SSW,212,0.0,3.0,92,0.00,,,0.21,Wunderground v.1.15,2013-02-11 21:16:00,
2013-02-11 16:21:00,45.2,43.0,29.63,West,275,0.0,1.0,92,0.00,,,0.21,Wunderground v.1.15,2013-02-11 21:21:00,
2013-02-11 16:26:00,45.4,43.2,29.63,SSW,202,1.0,2.0,92,0.00,,,0.21,Wunderground v.1.15,2013-02-11 21:26:00,
2013-02-11 16:32:00,45.4,43.2,29.64,SW,235,1.0,6.0,92,0.00,,,0.21,Wunderground v.1.15,2013-02-11 21:32:00,
2013-02-11 16:37:00,45.4,43.2,29.64,SW,215,1.0,6.0,92,0.00,,,0.21,Wunderground v.1.15,2013-02-11 21:37:00,
2013-02-11 16:42:00,45.7,43.5,29.64,SW,229,0.0,5.0,92,0.00,,,0.21,Wunderground v.1.15,2013-02-11 21:42:00,
2013-02-11 16:47:00,45.8,43.6,29.62,WSW,254,0.0,5.0,92,0.00,,,0.21,Wunderground v.1.15,2013-02-11 21:47:00,
2013-02-11 16:52:00,46.0,43.8,29.62,SSW,202,1.0,2.0,92,0.00,,,0.21,Wunderground v.1.15,2013-02-11 21:52:00,
2013-02-11 16:57:00,46.0,43.8,29.62,WSW,238,0.0,5.0,92,0.00,,,0.21,Wunderground v.1.15,2013-02-11 21:57:00,
2013-02-11 17:02:00,46.2,44.3,29.62,WSW,252,0.0,4.0,93,0.00,,,0.21,Wunderground v.1.15,2013-02-11 22:02:00,
2013-02-11 17:07:00,46.4,44.5,29.62,SW,219,0.0,5.0,93,0.00,,,0.21,Wunderground v.1.15,2013-02-11 22:07:00,
2013-02-11 17:12:00,46.5,44.6,29.62,NW,310,0.0,4.0,93,0.00,,,0.21,Wunderground v.1.15,2013-02-11 22:12:00,
2013-02-11 17:17:00,46.7,44.8,29.62,South,191,2.0,5.0,93,0.00,,,0.21,Wunderground v.1.15,2013-02-11 22:17:00,
2013-02-11 17:22:00,46.8,44.9,29.62,WSW,240,4.0,4.0,93,0.00,,,0.21,Wunderground v.1.15,2013-02-11 22:22:00,
2013-02-11 17:27:00,46.8,44.9,29.62,West,262,4.0,10.0,93,0.00,,,0.21,Wunderground v.1.15,2013-02-11 22:27:00,
2013-02-11 17:32:00,47.1,45.2,29.61,WNW,290,0.0,7.0,93,0.00,,,0.21,Wunderground v.1.15,2013-02-11 22:32:00,
2013-02-11 17:37:00,47.3,45.4,29.61,WSW,255,2.0,7.0,93,0.00,,,0.21,Wunderground v.1.15,2013-02-11 22:37:00,
2013-02-11 17:42:00,47.4,45.5,29.61,SSW,194,4.0,7.0,93,0.00,,,0.21,Wunderground v.1.15,2013-02-11 22:42:00,
2013-02-11 17:47:00,47.4,45.5,29.60,WSW,242,0.0,7.0,93,0.00,,,0.21,Wunderground v.1.15,2013-02-11 22:47:00,
2013-02-11 17:52:00,47.7,45.8,29.60,WNW,293,4.0,6.0,93,0.00,,,0.21,Wunderground v.1.15,2013-02-11 22:52:00,
2013-02-11 17:57:00,47.9,46.0,29.60,WNW,290,6.0,8.0,93,0.00,,,0.21,Wunderground v.1.15,2013-02-11 22:57:00,
2013-02-11 18:02:00,48.0,46.1,29.60,South,186,1.0,9.0,93,0.00,,,0.21,Wunderground v.1.15,2013-02-11 23:02:00,
2013-02-11 18:07:00,48.3,46.4,29.60,WSW,241,4.0,11.0,93,0.00,,,0.21,Wunderground v.1.15,2013-02-11 23:07:00,
2013-02-11 18:12:00,48.5,46.6,29.60,SSW,199,4.0,12.0,93,0.00,,,0.21,Wunderground v.1.15,2013-02-11 23:12:00,
2013-02-11 18:17:00,48.6,46.7,29.59,WNW,297,2.0,12.0,93,0.00,,,0.21,Wunderground v.1.15,2013-02-11 23:17:00,
2013-02-11 18:22:00,48.8,46.9,29.59,WSW,243,5.0,11.0,93,0.00,,,0.21,Wunderground v.1.15,2013-02-11 23:22:00,
2013-02-11 18:27:00,48.9,47.0,29.59,WSW,250,0.0,11.0,93,0.00,,,0.21,Wunderground v.1.15,2013-02-11 23:27:00,
2013-02-11 18:32:00,48.9,47.0,29.59,West,264,4.0,6.0,93,0.00,,,0.21,Wunderground v.1.15,2013-02-11 23:32:00,
2013-02-11 18:37:00,49.1,47.2,29.59,West,273,5.0,13.0,93,0.00,,,0.21,Wunderground v.1.15,2013-02-11 23:37:00,
2013-02-11 18:42:00,49.2,47.5,29.59,West,273,4.0,12.0,94,0.00,,,0.21,Wunderground v.1.15,2013-02-11 23:42:00,
2013-02-11 18:47:00,49.2,46.7,29.58,ESE,106,1.0,12.0,91,0.00,,,0.21,Wunderground v.1.15,2013-02-11 23:47:00,
2013-02-11 18:52:00,49.4,47.5,29.58,SW,220,1.0,11.0,93,0.00,,,0.21,Wunderground v.1.15,2013-02-11 23:52:00,
2013-02-11 18:57:00,49.4,47.7,29.58,West,265,3.0,11.0,94,0.00,,,0.21,Wunderground v.1.15,2013-02-11 23:57:00,
2013-02-11 19:02:00,49.6,47.9,29.58,South,179,4.0,11.0,94,0.00,,,0.21,Wunderground v.1.15,2013-02-12 00:02:00,
2013-02-11 19:07:00,49.6,47.9,29.58,WSW,245,5.0,11.0,94,0.00,,,0.21,Wunderground v.1.15,2013-02-12 00:07:00,
2013-02-11 19:12:00,49.6,47.9,29.58,WNW,284,1.0,11.0,94,0.00,,,0.21,Wunderground v.1.15,2013-02-12 00:12:00,
2013-02-11 19:17:00,49.6,47.9,29.58,SSW,213,2.0,12.0,94,0.00,,,0.21,Wunderground v.1.15,2013-02-12 00:17:00,
2013-02-11 19:22:00,49.6,47.9,29.58,WNW,299,6.0,7.0,94,0.00,,,0.21,Wunderground v.1.15,2013-02-12 00:22:00,
2013-02-11 19:27:00,49.6,47.9,29.58,WSW,242,0.0,9.0,94,0.00,,,0.21,Wunderground v.1.15,2013-02-12 00:27:00,
2013-02-11 19:32:00,49.8,48.1,29.58,WSW,254,2.0,10.0,94,0.00,,,0.21,Wunderground v.1.15,2013-02-12 00:32:00,
2013-02-11 19:38:00,49.8,48.1,29.58,SW,226,7.0,10.0,94,0.00,,,0.21,Wunderground v.1.15,2013-02-12 00:38:00,
2013-02-11 19:42:00,49.8,48.1,29.58,WNW,284,5.0,10.0,94,0.00,,,0.21,Wunderground v.1.15,2013-02-12 00:42:00,
2013-02-11 19:47:00,49.8,48.1,29.58,West,274,1.0,10.0,94,0.00,,,0.21,Wunderground v.1.15,2013-02-12 00:47:00,
2013-02-11 19:52:00,49.9,48.2,29.58,WNW,294,1.0,8.0,94,0.00,,,0.21,Wunderground v.1.15,2013-02-12 00:52:00,
2013-02-11 19:57:00,49.9,48.2,29.58,West,277,5.0,8.0,94,0.00,,,0.21,Wunderground v.1.15,2013-02-12 00:57:00,
2013-02-11 20:02:00,49.9,48.2,29.57,WSW,242,1.0,8.0,94,0.00,,,0.21,Wunderground v.1.15,2013-02-12 01:02:00,
2013-02-11 20:07:00,50.1,48.4,29.57,West,277,2.0,8.0,94,0.00,,,0.21,Wunderground v.1.15,2013-02-12 01:07:00,
2013-02-11 20:12:00,50.1,48.4,29.57,SW,229,1.0,6.0,94,0.00,,,0.21,Wunderground v.1.15,2013-02-12 01:12:00,
2013-02-11 20:17:00,50.1,48.4,29.57,NW,306,4.0,7.0,94,0.00,,,0.21,Wunderground v.1.15,2013-02-12 01:17:00,
2013-02-11 20:22:00,50.2,48.5,29.57,WNW,302,5.0,9.0,94,0.00,,,0.21,Wunderground v.1.15,2013-02-12 01:22:00,
2013-02-11 20:27:00,50.2,48.5,29.57,NW,323,5.0,9.0,94,0.00,,,0.21,Wunderground v.1.15,2013-02-12 01:27:00,
2013-02-11 20:32:00,50.4,48.7,29.57,SW,234,0.0,8.0,94,0.00,,,0.21,Wunderground v.1.15,2013-02-12 01:32:00,
2013-02-11 20:37:00,50.4,48.7,29.57,WSW,244,2.0,8.0,94,0.00,,,0.21,Wunderground v.1.15,2013-02-12 01:37:00,
2013-02-11 20:43:00,50.2,-99.9,29.57,WSW,247,2.0,6.0,255,0.00,,,0.21,Wunderground v.1.15,2013-02-12 01:43:00,
2013-02-11 20:48:00,50.2,48.5,29.57,West,280,1.0,7.0,94,0.00,,,0.21,Wunderground v.1.15,2013-02-12 01:48:00,
2013-02-11 20:53:00,50.1,48.4,29.57,West,271,1.0,4.0,94,0.00,,,0.21,Wunderground v.1.15,2013-02-12 01:53:00,
2013-02-11 20:58:00,50.1,48.4,29.57,West,268,3.0,6.0,94,0.00,,,0.21,Wunderground v.1.15,2013-02-12 01:58:00,
2013-02-11 21:03:00,49.9,48.2,29.57,West,264,1.0,4.0,94,0.00,,,0.21,Wunderground v.1.15,2013-02-12 02:03:00,
2013-02-11 21:08:00,49.8,48.1,29.57,West,264,1.0,4.0,94,0.00,,,0.21,Wunderground v.1.15,2013-02-12 02:08:00,
2013-02-11 21:13:00,49.6,47.9,29.57,West,279,1.0,5.0,94,0.00,,,0.21,Wunderground v.1.15,2013-02-12 02:13:00,
2013-02-11 21:18:00,49.5,47.8,29.58,West,279,0.0,5.0,94,0.00,,,0.21,Wunderground v.1.15,2013-02-12 02:18:00,
2013-02-11 21:23:00,49.2,47.5,29.58,West,279,1.0,2.0,94,0.00,,,0.21,Wunderground v.1.15,2013-02-12 02:23:00,
2013-02-11 21:28:00,48.9,47.2,29.58,West,273,0.0,5.0,94,0.00,,,0.21,Wunderground v.1.15,2013-02-12 02:28:00,
2013-02-11 21:33:00,48.8,47.2,29.59,West,260,0.0,2.0,94,0.00,,,0.21,Wunderground v.1.15,2013-02-12 02:33:00,
2013-02-11 21:38:00,48.5,46.9,29.59,SW,222,1.0,4.0,94,0.00,,,0.21,Wunderground v.1.15,2013-02-12 02:38:00,
2013-02-11 21:43:00,48.3,46.7,29.59,NW,311,2.0,7.0,94,0.00,,,0.21,Wunderground v.1.15,2013-02-12 02:43:00,
2013-02-11 21:48:00,48.0,46.4,29.60,WNW,292,2.0,7.0,94,0.00,,,0.21,Wunderground v.1.15,2013-02-12 02:48:00,
2013-02-11 21:53:00,48.0,46.4,29.60,WNW,300,0.0,5.0,94,0.00,,,0.21,Wunderground v.1.15,2013-02-12 02:53:00,
2013-02-11 21:58:00,48.2,46.6,29.60,NNW,345,2.0,5.0,94,0.00,,,0.21,Wunderground v.1.15,2013-02-12 02:58:00,
2013-02-11 22:03:00,48.5,46.9,29.62,NW,323,0.0,8.0,94,0.00,,,0.21,Wunderground v.1.15,2013-02-12 03:03:00,
2013-02-11 22:08:00,48.5,46.9,29.62,NW,313,0.0,8.0,94,0.00,,,0.21,Wunderground v.1.15,2013-02-12 03:08:00,
2013-02-11 22:13:00,48.3,46.7,29.62,NW,323,3.0,5.0,94,0.00,,,0.21,Wunderground v.1.15,2013-02-12 03:13:00,
2013-02-11 22:18:00,48.3,46.7,29.63,NNW,328,5.0,8.0,94,0.00,,,0.21,Wunderground v.1.15,2013-02-12 03:18:00,
2013-02-11 22:23:00,48.2,46.6,29.63,North,350,6.0,7.0,94,0.00,,,0.21,Wunderground v.1.15,2013-02-12 03:23:00,
2013-02-11 22:28:00,48.0,46.4,29.63,NW,314,2.0,10.0,94,0.00,,,0.21,Wunderground v.1.15,2013-02-12 03:28:00,
2013-02-11 22:33:00,47.6,45.7,29.64,NW,313,1.0,6.0,93,0.00,,,0.21,Wunderground v.1.15,2013-02-12 03:33:00,
2013-02-11 22:38:00,47.1,45.2,29.64,WNW,301,6.0,9.0,93,0.00,,,0.21,Wunderground v.1.15,2013-02-12 03:38:00,
2013-02-11 22:43:00,46.5,44.6,29.64,NW,321,4.0,8.0,93,0.00,,,0.21,Wunderground v.1.15,2013-02-12 03:43:00,
2013-02-11 22:48:00,46.0,44.1,29.64,NW,321,2.0,8.0,93,0.00,,,0.21,Wunderground v.1.15,2013-02-12 03:48:00,
2013-02-11 22:53:00,45.5,43.6,29.64,NW,323,1.0,5.0,93,0.00,,,0.21,Wunderground v.1.15,2013-02-12 03:53:00,
2013-02-11 22:58:00,45.2,43.3,29.64,North,351,1.0,5.0,93,0.00,,,0.21,Wunderground v.1.15,2013-02-12 03:58:00,
2013-02-11 23:03:00,44.9,43.0,29.65,NE,36,0.0,2.0,93,0.00,,,0.21,Wunderground v.1.15,2013-02-12 04:03:00,
2013-02-11 23:08:00,44.6,42.7,29.65,North,351,6.0,6.0,93,0.00,,,0.21,Wunderground v.1.15,2013-02-12 04:08:00,
2013-02-11 23:13:00,44.5,42.6,29.65,WNW,302,0.0,3.0,93,0.00,,,0.21,Wunderground v.1.15,2013-02-12 04:13:00,
2013-02-11 23:18:00,44.2,42.3,29.66,WNW,302,1.0,3.0,93,0.00,,,0.21,Wunderground v.1.15,2013-02-12 04:18:00,
2013-02-11 23:23:00,43.9,42.0,29.66,NW,314,1.0,6.0,93,0.00,,,0.21,Wunderground v.1.15,2013-02-12 04:23:00,
2013-02-11 23:29:00,43.8,41.9,29.67,NW,314,0.0,6.0,93,0.00,,,0.21,Wunderground v.1.15,2013-02-12 04:29:00,
2013-02-11 23:34:00,43.5,41.6,29.67,NW,314,0.0,1.0,93,0.00,,,0.21,Wunderground v.1.15,2013-02-12 04:34:00,
2013-02-11 23:39:00,43.3,41.4,29.67,NW,314,0.0,1.0,93,0.00,,,0.21,Wunderground v.1.15,2013-02-12 04:39:00,
2013-02-11 23:44:00,43.1,41.2,29.68,NW,314,0.0,0.0,93,0.00,,,0.21,Wunderground v.1.15,2013-02-12 04:44:00,
2013-02-11 23:49:00,42.8,40.9,29.68,NW,314,0.0,0.0,93,0.00,,,0.21,Wunderground v.1.15,2013-02-12 04:49:00,
2013-02-11 23:54:00,42.6,40.7,29.68,NW,314,0.0,0.0,93,0.00,,,0.21,Wunderground v.1.15,2013-02-12 04:54:00,
2013-02-11 23:59:00,42.3,40.4,29.68,NW,314,0.0,2.0,93,0.00,,,0.21,Wunderground v.1.15,2013-02-12 04:59:00,